Location: Newark
(3.1475°N, 101.6933°E)
Time: 07:49:52
(UTC+00:00)

Hubble Space Telescope - Pass Details

Date: 20 October 2019
Orbit: 536 x 540 km, 28.5° (Epoch: 19 November)

Event Time Altitude Azimuth Distance (km) Brightness Sun altitude
Rises 11:43:54 0° 276° (W) 2,673 6.0 -11.8°
Reaches altitude 10° 11:46:35 10° 260° (W) 1,784 5.0 -12.5°
Maximum altitude 11:49:44 21° 210° (SSW) 1,241 3.1 -13.3°
Drops below altitude 10° 11:52:53 10° 160° (SSE) 1,787 3.3 -14.0°
Enters shadow 11:55:15 - 145° (SE) 2,564 4.0 -14.6°
